NOAA NWS Hourly Roundups by Site

Regional Weather Roundup for State College, PA

To Select Another Site Choose from List

Select Site:  

000
ASUS41 KCTP 252010
RWRCTP

REGIONAL WEATHER ROUNDUP
NATIONAL WEATHER SERVICE STATE COLLEGE PA
400 PM EDT MON MAY 25 2020

Note: "fair" indicates few or no clouds below 12,000 feet with no
significant weather and/or obstructions to visibility.

* = STATION THAT DOES NOT REPORT PRECIPITATION /E.G. RAIN...SNOW...ETC/
    THUNDER OR FOG.

PAZ002>004-007>009-013>016-020>023-029>032-252100-
WESTERN PENNSYLVANIA

CITY           SKY/WX    TMP DP  RH WIND       PRES   REMARKS
ERIE           FAIR      86  63  45 N8        30.06F
MEADVILLE      FAIR      85  63  47 W6        30.09F
FRANKLIN       FAIR      86  64  47 SW5       30.11F
NEW CASTLE     FAIR      90  64  42 VRB5      30.08F
BEAVER COUNTY  PTSUNNY   85  61  44 SE7       30.09F
BUTLER         FAIR      86  65  49 S7        30.09F
PITTSBURGH INT PTSUNNY   84  63  49 W3        30.08F
PITTSBURGH     PTSUNNY   85  63  47 SE6       30.08F
INDIANA*       MOSUNNY   86  64  48 VRB3      30.14F
LATROBE        MOSUNNY   86  63  45 CALM      30.09F
WASHINGTON CO* FAIR      87  66  49 SE7       30.10F
$$

PAZ004>006-010>012-017>019-024>028-033>037-041-042-045-046-049>053-252100-
CENTRAL PENNSYLVANIA

CITY           SKY/WX    TMP DP  RH WIND       PRES   REMARKS
BRADFORD       FAIR      77  59  53 SE8       30.15S
ST MARYS       MOCLDY    81  63  54 SE3       30.17
DUBOIS         FAIR      82  61  48 SE3       30.12F
CLEARFIELD     FAIR      83  61  47 E6        30.13F
JOHNSTOWN      FAIR      80  61  52 SE6       30.16F
SOMERSET       FAIR      77  61  57 S14G20    30.17F
ALTOONA        FAIR      78  63  59 CALM      30.16F
STATE COLLEGE  SUNNY     79  66  65 S5        30.15F
REEDSVILLE     FAIR      77  63  61 VRB5      30.15
WELLSBORO      FAIR      79  66  65 SE10      30.14F
WILLIAMSPORT   FAIR      76  61  59 E3        30.13F
SELINSGROVE    FAIR      76  61  59 VRB7      30.15F
FT INDIANTOWN  FAIR      74  61  61 SW7       30.16F
CAPITAL CITY   FAIR      76  60  57 CALM      30.17F
HARRISBURG     FAIR      75  59  57 SE3       30.16F
YORK           FAIR      74  59  59 CALM      30.17F
$$

PAZ038>040-043-044-047-048-054-055-060>062-067>071-252100-
EASTERN PENNSYLVANIA

CITY           SKY/WX    TMP DP  RH WIND       PRES   REMARKS
TOWANDA        CLEAR     81  61  50 CALM      30.11F
SCRANTON       FAIR      80  59  48 W8        30.13F
MOUNT POCONO   FAIR      73  56  54 SE13      30.19F
HAZLETON       MOCLDY    77  55  47 SE8       30.21F
LEHIGHTON      FAIR      77  61  57 S6        30.17F
ALLENTOWN      FAIR      76  55  48 SE5       30.17F
QN CITY/ALNTWN FAIR      75  61  60 S3        30.18F
QUAKERTOWN*    CLEAR     75  59  57 VRB3G13   30.18F
PERKASIE*      FAIR      72  61  68 S6        30.20F
DOYLESTOWN     FAIR      72  60  66 CALM      30.18F
READING        FAIR      76  58  53 VRB5      30.15F
LANCASTER      FAIR      76  58  53 E6        30.17F
COATESVILLE    FAIR      72  59  64 VRB3      30.20F
WEST CHESTER   FAIR      73  59  60 NE5       30.18F
POTTSTOWN      FAIR      71  59  65 CALM      30.19F
BLUE BELL      FAIR      72  60  66 S5        30.19F
NORTH PHILA    FAIR      74  62  66 E6        30.20F
PHILADELPHIA   FAIR      73  58  59 E7        30.18F
$$


 

View Past Reports for State College, PA.

Products Courtesy of NOAA-NWS
NWS Information Parsing Script by Ken True at Saratoga Weather - Script by SE Lincoln Weather.